Content
SEND FEEDBACK

Daily
Averages
Monthly
Summary
United States of America

LYNN HAVEN, FLORIDA


Home > North America > United States > Florida
Elevation: 35 feet     Latitude: 30 13N     Longitude: 085 36W

WEATHER
 
SELECT A DAY
Number of Records: 224,958;   Date Range: 1/1/95 - 11/22/14
 
SHARE

PRINT THIS DATA

[ ← Previous Day ]
WEATHER ALMANAC - FEBRUARY 5, 2013
[ Next Day → ]
[ °C ]   °F
Weather ElementAverageHighLow
Temperature60.7 °F66.2 °F (12:49 pm)53.6 °F (6:38 am)
Dewpoint60.5 °F64.4 °F (12:08 pm)53.6 °F (6:38 am)
Humidity99.3 %100 % (1:58 am)94 % (11:58 am)
Barometer30.01 in30.08 in (7:58 am)29.97 in (4:14 pm)
Wind Speed7.4 mph18.4 mph (4:14 pm)
Wind Gust23 mph (4:14 pm)
Weather ElementAverage
Visibility6.6 mi
Wind DirectionESE (107 °)

Weather ElementTotal
Precipitation0.23 in
Heating Degree Days5.1 (Base 65)
Growing Degree Days9.9 (Base 50)
Averaged from 57 records on February 5, 2013
WEATHER CONDITIONS BREAKOUT
WIND DIRECTION BREAKOUT
WEATHER BY HOUR - FEBRUARY 5, 2013
[ °C ]   °F
Local TimeTemperatureDewpointHumidityBarometerVisibilityWind DirectionWind SpeedGust SpeedPrecipitationEventsConditions
1:58 AM54.3 °F54.3 °F100 %30.00 in10.0 miENE (60°)4.6 mphOvercast
2:58 AM54.1 °F54.1 °F100 %30.01 in10.0 miENE (70°)2.3 mphRainLight Rain
3:58 AM54.7 °F54.7 °F100 %30.02 in10.0 miENE (60°)2.3 mph0.00 inRainLight Rain
4:58 AM54.5 °F54.3 °F99 %30.02 in10.0 miENE (60°)5.8 mph0.01 inRainLight Rain
5:58 AM54.0 °F54.0 °F100 %30.05 in8.0 miENE (70°)2.3 mph0.04 inRainRain
6:38 AM53.6 °F53.6 °F100 %30.05 in10.0 miEast (100°)2.3 mphRainLight Rain
6:43 AM53.6 °F53.6 °F100 %30.05 in10.0 miENE (70°)2.3 mphRainLight Rain
6:58 AM54.3 °F54.3 °F100 %30.07 in10.0 miENE (60°)2.3 mph0.05 inRainLight Rain
7:58 AM55.4 °F55.2 °F99 %30.08 in7.0 miEast (100°)3.5 mph0.04 inRainLight Rain
8:58 AM56.5 °F56.5 °F100 %30.07 in10.0 miEast (90°)4.6 mph0.02 inOvercast
9:58 AM60.8 °F60.8 °F100 %30.06 in10.0 miEast (90°)9.2 mph0.00 inMostly Cloudy
10:58 AM62.2 °F62.2 °F100 %30.05 in10.0 miEast (90°)6.9 mph0.01 inRainLight Rain
11:58 AM64.4 °F62.6 °F94 %30.04 in10.0 miEast (100°)5.8 mph0.00 inRainLight Rain
12:08 PM64.4 °F64.4 °F100 %30.03 in10.0 miESE (110°)8.1 mphRainLight Rain
12:33 PM64.4 °F64.4 °F100 %30.02 in10.0 miESE (120°)4.6 mphRainLight Rain
12:49 PM66.2 °F64.4 °F94 %30.01 in10.0 miSE (130°)11.5 mphLight Drizzle
12:54 PM66.2 °F64.4 °F94 %30.00 in10.0 miSE (130°)10.4 mphLight Drizzle
12:58 PM65.5 °F64.2 °F96 %30.01 in10.0 miSE (130°)10.4 mph0.01 inLight Drizzle
1:08 PM66.2 °F64.4 °F94 %30.00 in10.0 miESE (120°)12.7 mphLight Drizzle
1:50 PM64.4 °F62.6 °F94 %30.00 in1.5 miSSE (150°)13.8 mphRainRain
1:58 PM63.9 °F62.8 °F96 %30.01 in1.5 miSSE (150°)12.7 mph0.00 inRainRain
2:02 PM62.6 °F62.6 °F100 %30.00 in2.5 miSSE (150°)12.7 mphOvercast
2:07 PM62.6 °F62.6 °F100 %30.00 in2.5 miSE (140°)10.4 mphOvercast
2:12 PM62.6 °F62.6 °F100 %30.00 in4.0 miSE (140°)10.4 mphOvercast
2:19 PM62.6 °F62.6 °F100 %29.99 in3.0 miSE (140°)6.9 mphLight Drizzle
2:22 PM62.6 °F62.6 °F100 %29.99 in5.0 miSE (140°)11.5 mphLight Drizzle
2:27 PM62.6 °F62.6 °F100 %29.99 in2.5 miSE (140°)11.5 mph16.1 mphRainLight Rain
2:33 PM62.6 °F62.6 °F100 %29.99 in7.0 miSE (130°)8.1 mphLight Drizzle
2:43 PM62.6 °F62.6 °F100 %29.99 in9.0 miSE (140°)6.9 mph17.3 mphLight Drizzle
2:58 PM62.2 °F62.2 °F100 %29.99 in10.0 miSE (140°)11.5 mph0.03 inRainLight Rain
3:03 PM62.6 °F62.6 °F100 %29.98 in10.0 miSE (130°)11.5 mphOvercast
3:15 PM62.6 °F62.6 °F100 %29.98 in2.0 miSE (130°)10.4 mphRainRain
3:23 PM62.6 °F62.6 °F100 %29.98 in3.0 miESE (120°)10.4 mphRainLight Rain
3:33 PM60.8 °F60.8 °F100 %29.98 in8.0 miESE (110°)9.2 mphLight Drizzle
3:45 PM60.8 °F60.8 °F100 %29.98 in2.0 miVariable4.6 mphRainLight Rain
3:58 PM60.8 °F60.8 °F100 %29.98 in2.0 miESE (120°)11.5 mph16.1 mph0.02 inLight Drizzle
4:14 PM62.6 °F62.6 °F100 %29.97 in5.0 miSouth (170°)18.4 mph23.0 mphLight Drizzle
4:33 PM62.6 °F62.6 °F100 %29.97 in10.0 miESE (110°)5.8 mphOvercast
4:56 PM60.8 °F60.8 °F100 %29.98 in10.0 miESE (110°)5.8 mphOvercast
5:56 PM60.8 °F60.8 °F100 %29.98 in10.0 miESE (120°)8.1 mphOvercast
6:58 PM60.8 °F60.8 °F100 %30.00 in10.0 miEast (90°)5.8 mph0.00 inOvercast
7:18 PM60.8 °F60.8 °F100 %30.00 in10.0 miNorth (360°)4.6 mphOvercast
7:58 PM61.2 °F61.2 °F100 %30.02 in10.0 miENE (60°)4.6 mphOvercast
8:58 PM60.8 °F60.8 °F100 %30.04 in10.0 miENE (70°)4.6 mph0.00 inOvercast
9:08 PM60.8 °F60.8 °F100 %30.03 in7.0 miENE (70°)5.8 mphOvercast
9:18 PM60.8 °F60.8 °F100 %30.03 in4.0 miENE (70°)4.6 mphOvercast
9:58 PM60.4 °F60.4 °F100 %30.04 in4.0 miNE (50°)4.6 mphOvercast
10:38 PM60.8 °F60.8 °F100 %30.03 in2.5 miEast (80°)5.8 mphOvercast
10:43 PM60.8 °F60.8 °F100 %30.03 in2.0 miEast (80°)4.6 mphOvercast
10:48 PM60.8 °F60.8 °F100 %30.03 in1.8 miEast (80°)5.8 mphOvercast
10:53 PM60.8 °F60.8 °F100 %30.03 in2.0 miEast (80°)5.8 mphOvercast
10:58 PM59.9 °F59.9 °F100 %30.04 in2.5 miEast (90°)6.9 mphOvercast
11:03 PM59.0 °F59.0 °F100 %30.03 in3.0 miEast (90°)6.9 mphOvercast
11:13 PM59.0 °F59.0 °F100 %30.03 in2.5 miEast (90°)5.8 mphOvercast
11:48 PM59.0 °F59.0 °F100 %30.02 in2.0 miEast (100°)6.9 mphOvercast
11:53 PM59.0 °F59.0 °F100 %30.01 in2.5 miEast (100°)6.9 mphOvercast
11:58 PM59.2 °F59.2 °F100 %30.03 in2.5 miEast (100°)5.8 mphOvercast
Hourly data recorded from KPAM, located miles away from Lynn Haven, Florida







STORIES FROM OUR PARTNERS